Location: Varese
(45.8000°N, 8.8330°E)
Time: 02:50:44
(UTC+02:00)

ISS - Pass Details

Date: 20 May 2021
Orbit: 417 x 422 km, 51.6° (Epoch: 14 June)

Event Time Altitude Azimuth Distance (km) Brightness Sun altitude
Rises 22:54:26 0° 281° (W) 2,363 0.8 -16.1°
Reaches altitude 10° 22:56:42 10° 292° (WNW) 1,501 -0.1 -16.3°
Maximum altitude 22:59:42 29° 355° (N) 796 -1.7 -16.6°
Drops below altitude 10° 23:02:43 10° 59° (ENE) 1,505 -1.0 -16.9°
Enters shadow 23:04:23 - 68° (ENE) 2,132 -0.3 -17.1°
